Вернуться в каталог

STARLINK-31485

АктивенСвязьVLEO
NORAD 59308·PAYLOAD·🇺🇸 United States

Запущен Mar 24, 2024 с Cape Canaveral Space Force Station

Loading…

Ближайшие Пролёты (ближайшие 24 часа)

TLE

СвежийSource: CelesTrak SupGP

Эпоха: Sep 14, 2026, 21:15 UTC

1 59308C 24056N   26257.88590278  .00034270  00000+0  12422-2 0  2576
2 59308  43.0009 242.4870 0001431 263.4879 194.0302 15.27537147    10

Отслеживайте STARLINK-31485 в реальном времени с AllMySat

Download on the App Store